Time,TemperatureF,DewpointF,PressureIn,WindDirection,WindDirectionDegrees,WindSpeedMPH,WindSpeedGustMPH,Humidity,HourlyPrecipIn,Conditions,Clouds,dailyrainin,SoftwareType,DateUTC
2013-05-11 00:01:00,58.9,58.9,30.27,South,180,0.0,1.3,100,-99.99,,,-99.99,WSDL version 420,2013-05-10 14:01:00,
2013-05-11 00:06:00,59.1,59.1,30.24,SSW,194,0.7,2.2,100,-99.99,,,-99.99,WSDL version 420,2013-05-10 14:06:00,
2013-05-11 00:11:00,59.4,59.4,30.24,NNE,23,0.0,2.2,100,-99.99,,,-99.99,WSDL version 420,2013-05-10 14:11:00,
2013-05-11 00:16:00,59.5,59.5,30.24,SW,225,0.0,0.9,100,-99.99,,,-99.99,WSDL version 420,2013-05-10 14:16:00,
2013-05-11 00:21:00,59.5,59.5,30.27,NW,325,0.0,0.0,100,-99.99,,,-99.99,WSDL version 420,2013-05-10 14:21:00,
2013-05-11 00:26:00,59.6,59.6,30.27,NW,304,0.0,0.0,100,-99.99,,,-99.99,WSDL version 420,2013-05-10 14:26:00,
2013-05-11 00:31:00,59.7,59.7,30.27,NNW,334,0.0,1.1,100,-99.99,,,-99.99,WSDL version 420,2013-05-10 14:31:00,
2013-05-11 00:36:00,59.7,59.7,30.27,WSW,254,0.1,2.5,100,-99.99,,,-99.99,WSDL version 420,2013-05-10 14:36:00,
2013-05-11 00:41:00,59.8,59.8,30.27,ESE,119,0.0,2.5,100,-99.99,,,-99.99,WSDL version 420,2013-05-10 14:41:00,
2013-05-11 00:46:00,59.9,59.9,30.27,West,272,0.0,2.5,100,-99.99,,,-99.99,WSDL version 420,2013-05-10 14:46:00,
2013-05-11 00:51:00,60.0,60.0,30.27,NE,41,0.0,2.5,100,-99.99,,,-99.99,WSDL version 420,2013-05-10 14:51:00,
2013-05-11 00:56:00,60.1,60.1,30.27,NNE,15,0.0,1.1,100,-99.99,,,-99.99,WSDL version 420,2013-05-10 14:56:00,
2013-05-11 01:01:00,60.1,60.1,30.27,NW,312,0.0,1.1,100,-99.99,,,-99.99,WSDL version 420,2013-05-10 15:01:00,
2013-05-11 01:06:00,60.2,60.2,30.27,NE,41,0.0,2.0,100,-99.99,,,-99.99,WSDL version 420,2013-05-10 15:06:00,
2013-05-11 01:11:00,60.4,60.4,30.27,West,273,1.6,2.9,100,-99.99,,,-99.99,WSDL version 420,2013-05-10 15:11:00,
2013-05-11 01:16:00,-999.0,-99.9,30.27,West,278,0.3,2.9,-999,-99.99,,,-99.99,WSDL version 420,2013-05-10 15:16:00,
2013-05-11 01:21:00,60.6,60.6,30.27,WSW,255,0.0,2.2,100,-99.99,,,-99.99,WSDL version 420,2013-05-10 15:21:00,
2013-05-11 01:26:00,60.6,60.6,30.27,NW,315,0.8,2.2,100,-99.99,,,-99.99,WSDL version 420,2013-05-10 15:26:00,
2013-05-11 01:31:00,60.6,60.6,30.27,West,270,0.0,2.2,100,-99.99,,,-99.99,WSDL version 420,2013-05-10 15:31:00,
2013-05-11 01:36:00,60.6,60.6,30.27,NNW,335,0.0,2.2,100,-99.99,,,-99.99,WSDL version 420,2013-05-10 15:36:00,
2013-05-11 01:41:00,60.4,60.4,30.27,SW,214,0.0,1.3,100,-99.99,,,-99.99,WSDL version 420,2013-05-10 15:41:00,
2013-05-11 01:46:00,60.4,60.4,30.27,West,268,0.0,2.2,100,-99.99,,,-99.99,WSDL version 420,2013-05-10 15:46:00,
2013-05-11 01:51:00,60.4,60.4,30.27,SW,214,0.0,2.2,100,-99.99,,,-99.99,WSDL version 420,2013-05-10 15:51:00,
2013-05-11 01:56:00,60.3,60.3,30.27,West,270,0.0,1.1,100,-99.99,,,-99.99,WSDL version 420,2013-05-10 15:56:00,
2013-05-11 02:01:00,60.3,60.3,30.27,North,10,0.0,0.0,100,-99.99,,,-99.99,WSDL version 420,2013-05-10 16:01:00,
2013-05-11 02:06:00,60.3,60.3,30.27,NW,321,0.0,0.0,100,-99.99,,,-99.99,WSDL version 420,2013-05-10 16:06:00,
2013-05-11 02:11:00,60.3,60.3,30.27,NW,305,0.0,0.0,100,-99.99,,,-99.99,WSDL version 420,2013-05-10 16:11:00,
2013-05-11 02:16:00,60.2,60.2,30.27,WSW,251,0.0,0.0,100,-99.99,,,-99.99,WSDL version 420,2013-05-10 16:16:00,
2013-05-11 02:21:00,60.1,60.1,30.27,ESE,103,0.0,0.0,100,-99.99,,,-99.99,WSDL version 420,2013-05-10 16:21:00,
2013-05-11 02:26:00,59.8,59.8,30.27,ENE,68,0.0,0.0,100,-99.99,,,-99.99,WSDL version 420,2013-05-10 16:26:00,
2013-05-11 02:31:00,59.5,59.5,30.27,ENE,68,0.0,0.0,100,-99.99,,,-99.99,WSDL version 420,2013-05-10 16:31:00,
2013-05-11 02:36:00,59.4,59.4,30.27,East,90,0.0,0.0,100,-99.99,,,-99.99,WSDL version 420,2013-05-10 16:36:00,
2013-05-11 02:41:00,59.2,59.2,30.27,ESE,113,0.0,0.0,100,-99.99,,,-99.99,WSDL version 420,2013-05-10 16:41:00,
2013-05-11 02:46:00,59.0,59.0,30.27,SW,217,0.0,0.0,100,-99.99,,,-99.99,WSDL version 420,2013-05-10 16:46:00,
2013-05-11 02:51:00,59.0,59.0,30.24,ESE,113,0.0,0.0,100,-99.99,,,-99.99,WSDL version 420,2013-05-10 16:51:00,
2013-05-11 02:56:00,58.9,58.9,30.24,East,79,0.0,0.0,100,-99.99,,,-99.99,WSDL version 420,2013-05-10 16:56:00,
2013-05-11 03:01:00,58.9,58.9,30.24,SW,228,0.0,0.0,100,-99.99,,,-99.99,WSDL version 420,2013-05-10 17:01:00,
2013-05-11 03:06:00,58.8,58.8,30.27,SE,145,0.0,0.0,100,-99.99,,,-99.99,WSDL version 420,2013-05-10 17:06:00,
2013-05-11 03:11:00,58.6,58.6,30.27,SE,135,0.0,0.0,100,-99.99,,,-99.99,WSDL version 420,2013-05-10 17:11:00,
2013-05-11 03:16:00,58.5,58.5,30.27,SE,125,0.0,0.0,100,-99.99,,,-99.99,WSDL version 420,2013-05-10 17:16:00,
2013-05-11 03:21:00,58.5,58.5,30.27,SE,127,0.0,0.0,100,0.00,,,0.00,WSDL version 420,2013-05-10 17:21:00,
2013-05-11 03:26:00,58.5,58.5,30.27,SSW,212,0.0,0.0,100,0.00,,,0.00,WSDL version 420,2013-05-10 17:26:00,
2013-05-11 03:31:00,58.5,58.5,30.27,SE,132,0.0,0.0,100,0.00,,,0.00,WSDL version 420,2013-05-10 17:31:00,
2013-05-11 03:36:00,58.6,58.6,30.27,SE,141,0.0,0.0,100,-99.99,,,-99.99,WSDL version 420,2013-05-10 17:36:00,
2013-05-11 03:41:00,58.5,58.5,30.27,SE,132,0.3,2.0,100,-99.99,,,-99.99,WSDL version 420,2013-05-10 17:41:00,
2013-05-11 03:46:00,58.5,58.5,30.27,ESE,103,0.0,2.0,100,0.00,,,0.00,WSDL version 420,2013-05-10 17:46:00,
2013-05-11 03:51:00,58.5,58.5,30.24,East,90,0.0,1.6,100,0.00,,,0.00,WSDL version 420,2013-05-10 17:51:00,
2013-05-11 03:56:00,58.3,58.3,30.24,WSW,244,0.0,0.0,100,0.00,,,0.00,WSDL version 420,2013-05-10 17:56:00,
2013-05-11 04:01:00,58.2,58.2,30.24,SSE,164,0.0,0.0,100,-99.99,,,-99.99,WSDL version 420,2013-05-10 18:01:00,
2013-05-11 04:06:00,58.1,58.1,30.24,East,94,0.0,1.1,100,-99.99,,,-99.99,WSDL version 420,2013-05-10 18:06:00,
2013-05-11 04:11:00,58.2,58.2,30.24,ESE,113,0.0,1.1,100,-99.99,,,-99.99,WSDL version 420,2013-05-10 18:11:00,
2013-05-11 04:16:00,58.1,58.1,30.24,ESE,104,0.0,0.0,100,-99.99,,,-99.99,WSDL version 420,2013-05-10 18:16:00,
2013-05-11 04:21:00,58.1,58.1,30.27,SSE,158,0.0,0.0,100,0.00,,,0.00,WSDL version 420,2013-05-10 18:21:00,
2013-05-11 04:26:00,58.1,58.1,30.27,SSE,167,0.0,1.1,100,-99.99,,,-99.99,WSDL version 420,2013-05-10 18:26:00,
2013-05-11 04:31:00,58.0,58.0,30.27,SSE,164,0.0,1.6,100,0.00,,,0.00,WSDL version 420,2013-05-10 18:31:00,
2013-05-11 04:36:00,58.0,58.0,30.24,East,83,0.0,1.6,100,-99.99,,,-99.99,WSDL version 420,2013-05-10 18:36:00,
2013-05-11 04:41:00,57.9,57.9,30.24,SE,125,0.0,0.0,100,-99.99,,,-99.99,WSDL version 420,2013-05-10 18:41:00,
2013-05-11 04:46:00,58.0,58.0,30.24,ESE,113,0.0,0.0,100,-99.99,,,-99.99,WSDL version 420,2013-05-10 18:46:00,
2013-05-11 04:51:00,58.1,58.1,30.24,East,84,0.0,0.0,100,-99.99,,,-99.99,WSDL version 420,2013-05-10 18:51:00,
2013-05-11 04:56:00,58.1,58.1,30.24,SSW,208,0.0,0.0,100,-99.99,,,-99.99,WSDL version 420,2013-05-10 18:56:00,
2013-05-11 05:01:00,58.0,58.0,30.24,SE,135,0.0,0.0,100,-99.99,,,-99.99,WSDL version 420,2013-05-10 19:01:00,
2013-05-11 05:06:00,58.0,58.0,30.24,SE,143,0.0,0.0,100,-99.99,,,-99.99,WSDL version 420,2013-05-10 19:06:00,
2013-05-11 05:11:00,57.9,57.9,30.24,NW,318,0.0,1.3,100,-99.99,,,-99.99,WSDL version 420,2013-05-10 19:11:00,
2013-05-11 05:16:00,58.0,58.0,30.24,SW,231,0.0,2.7,100,0.00,,,0.00,WSDL version 420,2013-05-10 19:16:00,
2013-05-11 05:21:00,57.9,57.9,30.27,East,87,0.0,2.7,100,-99.99,,,-99.99,WSDL version 420,2013-05-10 19:21:00,
2013-05-11 05:26:00,57.8,57.8,30.27,SW,221,0.0,2.2,100,-99.99,,,-99.99,WSDL version 420,2013-05-10 19:26:00,
2013-05-11 05:36:00,57.7,57.7,30.27,South,188,0.0,1.6,100,-99.99,,,-99.99,WSDL version 420,2013-05-10 19:36:00,
2013-05-11 05:41:00,57.7,57.7,30.27,WNW,298,0.0,0.0,100,-99.99,,,-99.99,WSDL version 420,2013-05-10 19:41:00,
2013-05-11 05:46:00,57.7,57.7,30.27,SW,218,0.0,0.0,100,-99.99,,,-99.99,WSDL version 420,2013-05-10 19:46:00,
2013-05-11 05:51:00,57.7,57.7,30.27,SSE,148,0.0,0.0,100,-99.99,,,-99.99,WSDL version 420,2013-05-10 19:51:00,
2013-05-11 05:56:00,-999.0,-99.9,30.27,South,176,0.0,0.0,-999,0.00,,,0.00,WSDL version 420,2013-05-10 19:56:00,
2013-05-11 06:01:00,57.9,57.9,30.27,ESE,113,0.0,0.0,100,0.00,,,0.00,WSDL version 420,2013-05-10 20:01:00,
2013-05-11 06:06:00,58.1,58.1,30.27,ESE,103,0.0,0.0,100,-99.99,,,-99.99,WSDL version 420,2013-05-10 20:06:00,
2013-05-11 06:11:00,58.1,58.1,30.27,SSW,195,0.0,0.0,100,-99.99,,,-99.99,WSDL version 420,2013-05-10 20:11:00,
2013-05-11 06:16:00,58.3,58.3,30.27,East,93,0.0,1.1,100,-99.99,,,-99.99,WSDL version 420,2013-05-10 20:16:00,
2013-05-11 06:21:00,58.4,58.4,30.27,SSW,212,0.5,3.1,100,0.00,,,0.00,WSDL version 420,2013-05-10 20:21:00,
2013-05-11 06:26:00,-999.0,-99.9,30.27,WNW,285,0.0,3.1,-999,0.00,,,0.00,WSDL version 420,2013-05-10 20:26:00,
2013-05-11 06:31:00,58.6,58.6,30.27,WSW,248,0.0,2.0,100,0.00,,,0.00,WSDL version 420,2013-05-10 20:31:00,
2013-05-11 06:36:00,58.7,58.7,30.24,WSW,251,0.0,2.0,100,0.00,,,0.00,WSDL version 420,2013-05-10 20:36:00,
2013-05-11 06:41:00,58.8,58.8,30.24,WNW,293,0.8,2.5,100,-99.99,,,-99.99,WSDL version 420,2013-05-10 20:41:00,
2013-05-11 06:46:00,58.8,58.8,30.24,SSW,203,0.0,2.5,100,-99.99,,,-99.99,WSDL version 420,2013-05-10 20:46:00,
2013-05-11 06:51:00,58.8,58.8,30.27,West,266,0.0,0.0,100,-99.99,,,-99.99,WSDL version 420,2013-05-10 20:51:00,
2013-05-11 06:56:00,58.8,58.8,30.27,NW,321,0.0,0.0,100,0.00,,,0.00,WSDL version 420,2013-05-10 20:56:00,
2013-05-11 07:01:00,59.1,59.1,30.27,North,6,0.0,0.0,100,-99.99,,,-99.99,WSDL version 420,2013-05-10 21:01:00,
2013-05-11 07:06:00,59.2,59.2,30.27,NW,318,0.3,0.9,100,-99.99,,,-99.99,WSDL version 420,2013-05-10 21:06:00,
2013-05-11 07:11:00,59.0,59.0,30.27,West,275,1.0,2.5,100,-99.99,,,-99.99,WSDL version 420,2013-05-10 21:11:00,
2013-05-11 07:16:00,59.2,59.2,30.27,WSW,251,0.0,2.5,100,0.00,,,0.00,WSDL version 420,2013-05-10 21:16:00,
2013-05-11 07:21:00,59.2,59.2,30.27,WNW,302,0.5,2.7,100,-99.99,,,-99.99,WSDL version 420,2013-05-10 21:21:00,
2013-05-11 07:26:00,59.4,59.4,30.27,West,278,0.0,2.7,100,-99.99,,,-99.99,WSDL version 420,2013-05-10 21:26:00,
2013-05-11 07:31:00,59.5,59.5,30.27,NNW,328,0.0,1.6,100,-99.99,,,-99.99,WSDL version 420,2013-05-10 21:31:00,
2013-05-11 07:36:00,59.7,59.7,30.24,SW,217,0.0,1.6,100,-99.99,,,-99.99,WSDL version 420,2013-05-10 21:36:00,
2013-05-11 07:41:00,59.8,59.8,30.24,NE,51,0.0,0.9,100,-99.99,,,-99.99,WSDL version 420,2013-05-10 21:41:00,
2013-05-11 07:46:00,60.1,60.1,30.24,NE,39,0.0,2.0,100,0.00,,,0.00,WSDL version 420,2013-05-10 21:46:00,
2013-05-11 07:51:00,60.2,60.2,30.24,NW,309,1.4,3.4,100,-99.99,,,-99.99,WSDL version 420,2013-05-10 21:51:00,
2013-05-11 07:56:00,60.5,60.5,30.24,WNW,289,1.5,3.4,100,-99.99,,,-99.99,WSDL version 420,2013-05-10 21:56:00,
2013-05-11 08:01:00,60.7,60.7,30.24,NW,309,0.4,2.9,100,-99.99,,,-99.99,WSDL version 420,2013-05-10 22:01:00,
2013-05-11 08:06:00,61.0,61.0,30.27,NW,318,1.9,3.1,100,-99.99,,,-99.99,WSDL version 420,2013-05-10 22:06:00,
2013-05-11 08:11:00,61.2,61.2,30.27,NW,304,2.8,4.0,100,-99.99,,,-99.99,WSDL version 420,2013-05-10 22:11:00,
2013-05-11 08:16:00,61.4,61.4,30.27,WNW,293,3.1,4.0,100,-99.99,,,-99.99,WSDL version 420,2013-05-10 22:16:00,
2013-05-11 08:21:00,61.6,61.6,30.27,WNW,284,2.3,4.3,100,-99.99,,,-99.99,WSDL version 420,2013-05-10 22:21:00,
2013-05-11 08:26:00,61.7,61.7,30.27,NE,41,0.0,4.3,100,-99.99,,,-99.99,WSDL version 420,2013-05-10 22:26:00,
2013-05-11 08:31:00,62.0,62.0,-100.00,NW,311,2.3,3.1,100,-99.99,,,-99.99,WSDL version 420,2013-05-10 22:31:00,
2013-05-11 08:36:00,63.0,63.0,30.27,NW,323,2.0,4.7,100,-99.99,,,-99.99,WSDL version 420,2013-05-10 22:36:00,
2013-05-11 08:41:00,63.8,63.8,30.27,West,266,2.8,6.0,100,-99.99,,,-99.99,WSDL version 420,2013-05-10 22:41:00,
2013-05-11 08:46:00,64.1,64.1,30.27,WNW,298,3.1,6.0,100,-99.99,,,-99.99,WSDL version 420,2013-05-10 22:46:00,
2013-05-11 08:51:00,64.5,64.5,30.27,West,273,3.1,5.4,100,-99.99,,,-99.99,WSDL version 420,2013-05-10 22:51:00,
2013-05-11 08:56:00,64.5,64.5,30.27,NNW,341,1.7,4.3,100,-99.99,,,-99.99,WSDL version 420,2013-05-10 22:56:00,
2013-05-11 09:01:00,64.6,64.6,30.27,West,280,2.7,4.3,100,-99.99,,,-99.99,WSDL version 420,2013-05-10 23:01:00,
2013-05-11 09:06:00,64.7,64.7,30.27,WNW,296,1.6,4.3,100,-99.99,,,-99.99,WSDL version 420,2013-05-10 23:06:00,
2013-05-11 09:11:00,65.1,65.1,30.27,WNW,289,2.0,4.7,100,-99.99,,,-99.99,WSDL version 420,2013-05-10 23:11:00,
2013-05-11 09:21:00,66.3,66.2,30.27,WNW,283,2.1,2.9,99,0.00,,,0.00,WSDL version 420,2013-05-10 23:21:00,
2013-05-11 09:26:00,66.5,65.9,30.27,WNW,302,1.8,2.9,98,0.00,,,0.00,WSDL version 420,2013-05-10 23:26:00,
2013-05-11 09:31:00,66.7,65.8,30.27,WNW,297,2.2,3.6,97,-99.99,,,-99.99,WSDL version 420,2013-05-10 23:31:00,
2013-05-11 09:36:00,66.8,65.2,30.30,NW,315,2.6,3.6,94,0.00,,,0.00,WSDL version 420,2013-05-10 23:36:00,
2013-05-11 09:41:00,66.9,64.9,30.30,NW,315,2.2,3.8,93,-99.99,,,-99.99,WSDL version 420,2013-05-10 23:41:00,
2013-05-11 09:46:00,67.1,65.1,30.30,NW,318,1.8,3.8,93,-99.99,,,-99.99,WSDL version 420,2013-05-10 23:46:00,
2013-05-11 09:51:00,67.4,64.9,30.30,West,267,2.7,3.4,91,0.00,,,0.00,WSDL version 420,2013-05-10 23:51:00,
2013-05-11 09:56:00,67.6,64.8,30.30,WNW,289,2.4,4.0,90,-99.99,,,-99.99,WSDL version 420,2013-05-10 23:56:00,
2013-05-11 10:01:00,67.7,64.4,30.30,WNW,286,2.6,5.4,89,-99.99,,,-99.99,WSDL version 420,2013-05-11 00:01:00,
2013-05-11 10:06:00,68.0,64.1,30.30,SE,139,3.1,6.3,87,0.00,,,0.00,WSDL version 420,2013-05-11 00:06:00,
2013-05-11 10:11:00,68.3,63.8,30.30,WNW,295,3.2,6.3,86,-99.99,,,-99.99,WSDL version 420,2013-05-11 00:11:00,
2013-05-11 10:16:00,68.9,64.0,30.30,WNW,296,3.9,7.4,84,-99.99,,,-99.99,WSDL version 420,2013-05-11 00:16:00,
2013-05-11 10:21:00,69.4,63.5,30.27,NW,313,4.9,8.7,81,-99.99,,,-99.99,WSDL version 420,2013-05-11 00:21:00,
2013-05-11 10:26:00,69.0,63.0,30.27,NE,41,2.9,8.7,81,-99.99,,,-99.99,WSDL version 420,2013-05-11 00:26:00,
2013-05-11 10:31:00,68.7,62.9,30.27,North,8,2.7,5.4,82,-99.99,,,-99.99,WSDL version 420,2013-05-11 00:31:00,
2013-05-11 10:36:00,-999.0,-99.9,30.27,North,11,1.6,4.0,-999,-99.99,,,-99.99,WSDL version 420,2013-05-11 00:36:00,
2013-05-11 10:41:00,68.0,62.6,30.27,NW,309,2.0,5.8,83,-99.99,,,-99.99,WSDL version 420,2013-05-11 00:41:00,
2013-05-11 10:46:00,67.9,63.0,30.27,North,360,1.9,5.8,84,-99.99,,,-99.99,WSDL version 420,2013-05-11 00:46:00,
2013-05-11 10:51:00,68.0,63.1,30.27,ENE,75,1.9,4.9,84,-99.99,,,-99.99,WSDL version 420,2013-05-11 00:51:00,
2013-05-11 10:56:00,68.2,63.5,30.27,NNW,342,2.3,4.9,84,-99.99,,,-99.99,WSDL version 420,2013-05-11 00:56:00,
2013-05-11 11:01:00,68.1,63.2,30.27,NW,325,1.8,6.5,84,0.00,,,0.00,WSDL version 420,2013-05-11 01:01:00,
2013-05-11 11:06:00,68.2,63.6,30.27,West,264,3.2,6.5,84,-99.99,,,-99.99,WSDL version 420,2013-05-11 01:06:00,
2013-05-11 11:11:00,68.5,63.9,30.27,North,357,0.3,5.8,86,0.00,,,0.00,WSDL version 420,2013-05-11 01:11:00,
2013-05-11 11:16:00,69.3,64.9,30.27,NW,321,1.4,3.8,86,-99.99,,,-99.99,WSDL version 420,2013-05-11 01:16:00,
2013-05-11 11:21:00,69.8,65.0,30.24,ESE,118,0.9,3.6,84,0.00,,,0.00,WSDL version 420,2013-05-11 01:21:00,
2013-05-11 11:26:00,69.9,64.5,30.24,East,101,2.8,3.1,82,-99.99,,,-99.99,WSDL version 420,2013-05-11 01:26:00,
2013-05-11 11:31:00,69.6,63.6,30.24,SE,135,2.1,4.0,81,-99.99,,,-99.99,WSDL version 420,2013-05-11 01:31:00,
2013-05-11 11:36:00,69.5,62.7,30.27,East,87,3.7,6.5,78,-99.99,,,-99.99,WSDL version 420,2013-05-11 01:36:00,
2013-05-11 11:41:00,69.5,62.2,30.27,East,82,4.4,7.4,77,-99.99,,,-99.99,WSDL version 420,2013-05-11 01:41:00,
2013-05-11 11:46:00,69.5,62.2,30.27,ENE,59,3.4,7.4,78,-99.99,,,-99.99,WSDL version 420,2013-05-11 01:46:00,
2013-05-11 11:51:00,70.3,62.8,30.27,ENE,75,3.2,7.2,76,-99.99,,,-99.99,WSDL version 420,2013-05-11 01:51:00,
2013-05-11 11:56:00,70.2,61.9,30.27,NNW,338,3.6,7.4,75,0.00,,,0.00,WSDL version 420,2013-05-11 01:56:00,
2013-05-11 12:01:00,69.9,61.7,30.27,ENE,68,2.8,7.4,76,0.00,,,0.00,WSDL version 420,2013-05-11 02:01:00,
2013-05-11 12:11:00,69.8,61.8,30.27,North,8,3.9,5.4,75,-99.99,,,-99.99,WSDL version 420,2013-05-11 02:11:00,
2013-05-11 12:16:00,69.4,61.7,30.27,NE,36,1.8,5.4,78,-99.99,,,-99.99,WSDL version 420,2013-05-11 02:16:00,
2013-05-11 12:21:00,69.4,62.0,30.24,ENE,60,2.9,4.9,77,-99.99,,,-99.99,WSDL version 420,2013-05-11 02:21:00,
2013-05-11 12:26:00,69.0,61.4,30.24,ENE,65,2.8,4.3,77,-99.99,,,-99.99,WSDL version 420,2013-05-11 02:26:00,
2013-05-11 12:31:00,68.6,61.5,30.24,NNE,32,3.1,4.0,78,-99.99,,,-99.99,WSDL version 420,2013-05-11 02:31:00,
2013-05-11 12:36:00,68.5,61.6,30.24,NE,56,1.9,4.3,79,-99.99,,,-99.99,WSDL version 420,2013-05-11 02:36:00,
2013-05-11 12:41:00,68.6,61.9,30.24,West,259,1.5,4.9,79,-99.99,,,-99.99,WSDL version 420,2013-05-11 02:41:00,
2013-05-11 12:46:00,68.5,61.4,30.24,East,84,2.9,6.0,78,-99.99,,,-99.99,WSDL version 420,2013-05-11 02:46:00,
2013-05-11 12:51:00,68.7,61.6,30.24,NNE,25,2.3,6.0,78,-99.99,,,-99.99,WSDL version 420,2013-05-11 02:51:00,
2013-05-11 12:56:00,68.9,61.6,30.24,NE,38,3.8,6.0,78,-99.99,,,-99.99,WSDL version 420,2013-05-11 02:56:00,
2013-05-11 13:01:00,69.6,62.1,30.24,East,83,2.8,6.0,77,-99.99,,,-99.99,WSDL version 420,2013-05-11 03:01:00,
2013-05-11 13:06:00,70.1,61.4,30.21,NE,34,3.6,6.3,74,-99.99,,,-99.99,WSDL version 420,2013-05-11 03:06:00,
2013-05-11 13:11:00,70.8,62.0,30.21,East,93,3.2,6.3,72,-99.99,,,-99.99,WSDL version 420,2013-05-11 03:11:00,
2013-05-11 13:16:00,70.8,61.4,30.21,WNW,301,2.5,6.5,71,-99.99,,,-99.99,WSDL version 420,2013-05-11 03:16:00,
2013-05-11 13:21:00,70.9,61.2,30.21,WNW,296,3.1,6.5,72,-99.99,,,-99.99,WSDL version 420,2013-05-11 03:21:00,
2013-05-11 13:26:00,71.5,61.7,30.21,NW,321,2.7,6.3,71,-99.99,,,-99.99,WSDL version 420,2013-05-11 03:26:00,
2013-05-11 13:31:00,71.6,61.6,30.21,North,360,3.5,5.6,71,-99.99,,,-99.99,WSDL version 420,2013-05-11 03:31:00,
2013-05-11 13:36:00,71.9,61.7,30.21,North,11,3.2,6.3,70,-99.99,,,-99.99,WSDL version 420,2013-05-11 03:36:00,
2013-05-11 13:41:00,71.8,61.4,30.21,NW,308,4.0,6.3,70,-99.99,,,-99.99,WSDL version 420,2013-05-11 03:41:00,
2013-05-11 13:46:00,71.8,61.2,30.21,NE,34,2.5,6.0,69,0.00,,,0.00,WSDL version 420,2013-05-11 03:46:00,
2013-05-11 13:51:00,71.4,61.1,30.21,ENE,68,2.4,6.0,70,-99.99,,,-99.99,WSDL version 420,2013-05-11 03:51:00,
2013-05-11 13:56:00,70.8,61.0,30.21,NE,53,1.9,4.3,71,-99.99,,,-99.99,WSDL version 420,2013-05-11 03:56:00,
2013-05-11 14:01:00,70.2,60.3,30.21,ENE,74,4.3,5.6,71,-99.99,,,-99.99,WSDL version 420,2013-05-11 04:01:00,
2013-05-11 14:06:00,69.4,60.2,30.21,ENE,77,2.8,7.8,73,-99.99,,,-99.99,WSDL version 420,2013-05-11 04:06:00,
2013-05-11 14:11:00,69.2,60.7,30.21,NE,51,2.4,7.8,75,-99.99,,,-99.99,WSDL version 420,2013-05-11 04:11:00,
2013-05-11 14:16:00,69.2,61.2,30.21,NE,39,1.9,5.4,76,-99.99,,,-99.99,WSDL version 420,2013-05-11 04:16:00,
2013-05-11 14:21:00,69.2,61.3,30.21,East,90,3.0,6.5,76,-99.99,,,-99.99,WSDL version 420,2013-05-11 04:21:00,
2013-05-11 14:26:00,69.5,61.6,30.21,ESE,109,2.5,6.5,76,0.00,,,0.00,WSDL version 420,2013-05-11 04:26:00,
2013-05-11 14:31:00,69.7,61.4,30.21,NNE,19,2.7,7.6,75,-99.99,,,-99.99,WSDL version 420,2013-05-11 04:31:00,
2013-05-11 14:36:00,70.2,61.7,30.21,NE,53,2.8,8.1,73,-99.99,,,-99.99,WSDL version 420,2013-05-11 04:36:00,
2013-05-11 14:41:00,70.3,60.9,30.21,North,4,3.5,8.1,73,-99.99,,,-99.99,WSDL version 420,2013-05-11 04:41:00,
2013-05-11 14:46:00,70.5,61.5,30.21,SE,140,1.6,5.8,73,-99.99,,,-99.99,WSDL version 420,2013-05-11 04:46:00,
2013-05-11 14:51:00,72.1,62.2,30.21,NE,41,3.0,6.0,70,0.00,,,0.00,WSDL version 420,2013-05-11 04:51:00,
2013-05-11 14:56:00,72.7,61.9,30.21,North,352,2.9,6.0,68,-99.99,,,-99.99,WSDL version 420,2013-05-11 04:56:00,
2013-05-11 15:01:00,-999.0,-99.9,30.21,SSW,195,2.3,5.8,-999,0.00,,,0.00,WSDL version 420,2013-05-11 05:01:00,
2013-05-11 15:06:00,72.2,60.9,30.21,NE,48,2.7,5.8,67,0.00,,,0.00,WSDL version 420,2013-05-11 05:06:00,
2013-05-11 15:11:00,71.6,60.3,30.21,North,357,2.9,4.9,68,-99.99,,,-99.99,WSDL version 420,2013-05-11 05:11:00,
2013-05-11 15:16:00,71.0,60.1,30.21,ENE,74,2.8,4.9,69,-99.99,,,-99.99,WSDL version 420,2013-05-11 05:16:00,
2013-05-11 15:21:00,70.6,60.0,30.21,ENE,73,2.9,5.6,69,-99.99,,,-99.99,WSDL version 420,2013-05-11 05:21:00,
2013-05-11 15:26:00,70.3,59.6,30.21,NNW,338,2.9,5.8,69,-99.99,,,-99.99,WSDL version 420,2013-05-11 05:26:00,
2013-05-11 15:31:00,70.0,58.9,30.21,NE,42,4.4,6.5,67,-99.99,,,-99.99,WSDL version 420,2013-05-11 05:31:00,
2013-05-11 15:36:00,69.6,58.8,30.21,SE,124,4.6,7.6,68,-99.99,,,-99.99,WSDL version 420,2013-05-11 05:36:00,
2013-05-11 15:41:00,69.4,58.6,30.21,East,80,3.5,7.6,69,-99.99,,,-99.99,WSDL version 420,2013-05-11 05:41:00,
2013-05-11 15:46:00,69.4,58.8,30.21,ENE,68,3.0,5.8,69,-99.99,,,-99.99,WSDL version 420,2013-05-11 05:46:00,
2013-05-11 15:51:00,69.4,58.8,30.18,NE,38,2.9,5.6,69,-99.99,,,-99.99,WSDL version 420,2013-05-11 05:51:00,
2013-05-11 15:56:00,69.7,58.8,30.18,ENE,70,3.6,6.0,68,-99.99,,,-99.99,WSDL version 420,2013-05-11 05:56:00,
2013-05-11 16:01:00,70.3,59.0,30.18,NE,45,3.3,6.0,67,-99.99,,,-99.99,WSDL version 420,2013-05-11 06:01:00,
2013-05-11 16:06:00,70.7,58.9,30.21,NNE,15,3.9,6.3,66,-99.99,,,-99.99,WSDL version 420,2013-05-11 06:06:00,
2013-05-11 16:11:00,70.6,58.4,30.21,ENE,59,4.6,6.3,65,-99.99,,,-99.99,WSDL version 420,2013-05-11 06:11:00,
2013-05-11 16:16:00,70.2,57.9,30.21,NNE,23,3.3,6.3,65,-99.99,,,-99.99,WSDL version 420,2013-05-11 06:16:00,
2013-05-11 16:21:00,69.7,57.7,30.21,NNE,13,2.6,5.6,66,-99.99,,,-99.99,WSDL version 420,2013-05-11 06:21:00,
2013-05-11 16:26:00,69.1,57.7,30.21,North,11,2.3,4.9,67,-99.99,,,-99.99,WSDL version 420,2013-05-11 06:26:00,
2013-05-11 16:31:00,68.8,57.8,30.21,NE,45,3.2,6.0,68,-99.99,,,-99.99,WSDL version 420,2013-05-11 06:31:00,
2013-05-11 16:36:00,68.5,57.9,30.21,East,87,3.0,6.0,69,-99.99,,,-99.99,WSDL version 420,2013-05-11 06:36:00,
2013-05-11 16:41:00,68.1,57.8,30.21,NE,42,2.5,5.6,70,-99.99,,,-99.99,WSDL version 420,2013-05-11 06:41:00,
2013-05-11 16:46:00,67.9,57.7,30.21,ENE,75,3.5,6.0,70,-99.99,,,-99.99,WSDL version 420,2013-05-11 06:46:00,
2013-05-11 16:51:00,67.5,57.9,30.21,ENE,74,2.6,6.0,72,-99.99,,,-99.99,WSDL version 420,2013-05-11 06:51:00,
2013-05-11 16:56:00,67.2,57.9,30.21,East,93,2.1,4.0,72,-99.99,,,-99.99,WSDL version 420,2013-05-11 06:56:00,
2013-05-11 17:01:00,67.0,57.9,30.21,NE,55,3.9,5.4,73,-99.99,,,-99.99,WSDL version 420,2013-05-11 07:01:00,
2013-05-11 17:06:00,66.7,57.8,30.21,East,94,0.2,5.4,73,-99.99,,,-99.99,WSDL version 420,2013-05-11 07:06:00,
2013-05-11 17:11:00,66.5,57.9,30.21,NE,50,2.5,4.7,74,-99.99,,,-99.99,WSDL version 420,2013-05-11 07:11:00,
2013-05-11 17:16:00,66.3,58.1,30.21,ENE,60,1.6,4.7,75,-99.99,,,-99.99,WSDL version 420,2013-05-11 07:16:00,
2013-05-11 17:21:00,65.7,57.9,30.21,ESE,104,0.3,3.4,76,-99.99,,,-99.99,WSDL version 420,2013-05-11 07:21:00,
2013-05-11 17:26:00,65.1,57.7,30.21,SSW,206,0.9,3.4,78,-99.99,,,-99.99,WSDL version 420,2013-05-11 07:26:00,
2013-05-11 17:31:00,64.8,58.5,30.21,East,82,1.0,4.0,80,-99.99,,,-99.99,WSDL version 420,2013-05-11 07:31:00,
2013-05-11 17:36:00,64.8,58.9,30.21,SSE,167,0.6,4.0,81,-99.99,,,-99.99,WSDL version 420,2013-05-11 07:36:00,
2013-05-11 17:41:00,64.8,58.8,30.21,SSE,153,0.8,2.7,81,-99.99,,,-99.99,WSDL version 420,2013-05-11 07:41:00,
2013-05-11 17:46:00,64.8,59.2,30.21,SE,128,1.0,2.5,82,-99.99,,,-99.99,WSDL version 420,2013-05-11 07:46:00,
2013-05-11 17:51:00,64.8,59.3,30.21,NE,42,0.6,4.7,82,-99.99,,,-99.99,WSDL version 420,2013-05-11 07:51:00,
2013-05-11 17:56:00,64.5,59.0,30.21,NE,37,0.9,4.7,82,-99.99,,,-99.99,WSDL version 420,2013-05-11 07:56:00,
2013-05-11 18:01:00,64.4,58.9,30.21,WNW,293,1.5,2.7,83,-99.99,,,-99.99,WSDL version 420,2013-05-11 08:01:00,
2013-05-11 18:06:00,64.0,58.9,30.21,SSE,166,0.2,2.9,83,0.00,,,0.00,WSDL version 420,2013-05-11 08:06:00,
2013-05-11 18:11:00,63.8,58.6,30.21,SE,135,0.8,2.9,83,-99.99,,,-99.99,WSDL version 420,2013-05-11 08:11:00,
2013-05-11 18:16:00,63.5,58.6,30.21,East,96,1.5,2.5,84,-99.99,,,-99.99,WSDL version 420,2013-05-11 08:16:00,
2013-05-11 18:21:00,63.5,59.1,30.24,ESE,113,0.4,2.7,86,-99.99,,,-99.99,WSDL version 420,2013-05-11 08:21:00,
2013-05-11 18:26:00,63.1,58.7,30.24,ESE,118,0.0,2.7,86,-99.99,,,-99.99,WSDL version 420,2013-05-11 08:26:00,
2013-05-11 18:31:00,62.6,58.2,30.24,SE,129,0.0,1.1,86,0.00,,,0.00,WSDL version 420,2013-05-11 08:31:00,
2013-05-11 18:36:00,62.0,57.8,30.24,ESE,122,0.8,2.0,87,-99.99,,,-99.99,WSDL version 420,2013-05-11 08:36:00,
2013-05-11 18:41:00,-999.0,-99.9,30.24,East,90,0.0,2.0,-999,0.00,,,0.00,WSDL version 420,2013-05-11 08:41:00,
2013-05-11 18:46:00,61.1,57.9,30.24,ESE,118,1.0,2.2,90,-99.99,,,-99.99,WSDL version 420,2013-05-11 08:46:00,
2013-05-11 18:51:00,60.7,58.0,30.24,SE,128,0.6,2.2,91,0.00,,,0.00,WSDL version 420,2013-05-11 08:51:00,
2013-05-11 18:56:00,60.6,58.5,30.24,ENE,74,0.3,2.0,93,0.00,,,0.00,WSDL version 420,2013-05-11 08:56:00,
2013-05-11 19:01:00,60.5,58.6,30.24,SE,124,0.0,2.0,93,0.00,,,0.00,WSDL version 420,2013-05-11 09:01:00,
2013-05-11 19:06:00,60.3,58.7,30.24,ESE,113,0.0,1.1,94,0.00,,,0.00,WSDL version 420,2013-05-11 09:06:00,
2013-05-11 19:11:00,60.0,58.4,30.24,East,90,0.0,1.1,94,0.00,,,0.00,WSDL version 420,2013-05-11 09:11:00,
2013-05-11 19:16:00,59.6,58.1,30.24,East,90,0.0,0.0,96,0.00,,,0.00,WSDL version 420,2013-05-11 09:16:00,
2013-05-11 19:21:00,59.4,58.1,30.24,SE,128,0.0,0.0,96,-99.99,,,-99.99,WSDL version 420,2013-05-11 09:21:00,
2013-05-11 19:26:00,59.2,58.0,30.24,SW,225,0.0,0.0,96,-99.99,,,-99.99,WSDL version 420,2013-05-11 09:26:00,
2013-05-11 19:31:00,58.9,57.8,30.24,East,90,0.0,0.0,97,-99.99,,,-99.99,WSDL version 420,2013-05-11 09:31:00,
2013-05-11 19:36:00,58.7,57.8,30.24,WSW,244,0.0,0.0,97,-99.99,,,-99.99,WSDL version 420,2013-05-11 09:36:00,
2013-05-11 19:41:00,58.5,57.5,30.24,WSW,238,0.0,0.0,97,-99.99,,,-99.99,WSDL version 420,2013-05-11 09:41:00,
2013-05-11 19:46:00,58.2,57.6,30.24,WSW,248,0.0,0.0,98,-99.99,,,-99.99,WSDL version 420,2013-05-11 09:46:00,
2013-05-11 19:51:00,58.0,57.3,30.27,WSW,248,0.0,0.0,98,-99.99,,,-99.99,WSDL version 420,2013-05-11 09:51:00,
2013-05-11 19:56:00,57.9,57.6,30.27,SW,225,0.0,0.0,99,0.00,,,0.00,WSDL version 420,2013-05-11 09:56:00,
2013-05-11 20:01:00,57.7,57.3,30.27,SW,225,0.0,0.0,99,-99.99,,,-99.99,WSDL version 420,2013-05-11 10:01:00,
2013-05-11 20:06:00,57.5,57.2,30.27,SW,225,0.0,0.0,99,-99.99,,,-99.99,WSDL version 420,2013-05-11 10:06:00,
2013-05-11 20:11:00,57.4,57.3,30.27,SW,225,0.0,0.0,100,-99.99,,,-99.99,WSDL version 420,2013-05-11 10:11:00,
2013-05-11 20:16:00,57.3,57.3,30.27,SW,225,0.0,0.0,100,-99.99,,,-99.99,WSDL version 420,2013-05-11 10:16:00,
2013-05-11 20:21:00,57.4,57.4,30.27,SW,225,0.0,0.0,100,-99.99,,,-99.99,WSDL version 420,2013-05-11 10:21:00,
2013-05-11 20:26:00,57.6,57.6,30.27,SW,225,0.0,0.0,100,-99.99,,,-99.99,WSDL version 420,2013-05-11 10:26:00,
2013-05-11 20:31:00,57.6,57.6,30.27,WSW,244,0.0,0.0,100,-99.99,,,-99.99,WSDL version 420,2013-05-11 10:31:00,
2013-05-11 20:36:00,57.7,57.7,30.24,West,270,0.0,0.0,100,-99.99,,,-99.99,WSDL version 420,2013-05-11 10:36:00,
2013-05-11 20:41:00,57.7,57.7,30.24,West,270,0.0,0.0,100,-99.99,,,-99.99,WSDL version 420,2013-05-11 10:41:00,
2013-05-11 20:46:00,57.9,57.9,30.24,West,270,0.0,0.0,100,-99.99,,,-99.99,WSDL version 420,2013-05-11 10:46:00,
2013-05-11 20:51:00,57.9,57.9,30.24,WSW,242,0.0,0.0,100,-99.99,,,-99.99,WSDL version 420,2013-05-11 10:51:00,
2013-05-11 20:56:00,58.0,58.0,30.24,WNW,285,0.0,0.0,100,0.00,,,0.00,WSDL version 420,2013-05-11 10:56:00,
2013-05-11 21:01:00,58.1,58.1,30.24,NW,308,0.0,1.3,100,-99.99,,,-99.99,WSDL version 420,2013-05-11 11:01:00,
2013-05-11 21:06:00,58.1,58.1,30.24,WSW,253,0.0,1.3,100,-99.99,,,-99.99,WSDL version 420,2013-05-11 11:06:00,
2013-05-11 21:11:00,58.1,58.1,30.24,WSW,248,0.0,1.3,100,-99.99,,,-99.99,WSDL version 420,2013-05-11 11:11:00,
2013-05-11 21:16:00,58.1,58.1,30.24,North,4,0.0,0.0,100,-99.99,,,-99.99,WSDL version 420,2013-05-11 11:16:00,
2013-05-11 21:21:00,58.2,58.2,30.27,East,93,0.0,0.0,100,0.00,,,0.00,WSDL version 420,2013-05-11 11:21:00,
2013-05-11 21:26:00,58.5,58.5,30.27,East,90,0.0,0.0,100,-99.99,,,-99.99,WSDL version 420,2013-05-11 11:26:00,
2013-05-11 21:31:00,58.8,58.8,30.27,SE,138,0.0,0.0,100,-99.99,,,-99.99,WSDL version 420,2013-05-11 11:31:00,
2013-05-11 21:36:00,59.2,59.2,30.27,NNW,338,0.0,0.0,100,0.00,,,0.00,WSDL version 420,2013-05-11 11:36:00,
2013-05-11 21:41:00,59.2,59.2,30.27,West,270,0.0,0.0,100,0.00,,,0.00,WSDL version 420,2013-05-11 11:41:00,
2013-05-11 21:46:00,59.2,59.2,30.24,West,270,0.0,0.0,100,-99.99,,,-99.99,WSDL version 420,2013-05-11 11:46:00,
2013-05-11 21:51:00,59.2,59.2,30.24,SW,225,0.0,0.0,100,0.00,,,0.00,WSDL version 420,2013-05-11 11:51:00,
2013-05-11 21:56:00,59.2,59.2,30.24,SW,225,0.0,0.0,100,0.00,,,0.00,WSDL version 420,2013-05-11 11:56:00,
2013-05-11 22:01:00,59.2,59.2,30.24,SW,225,0.0,0.0,100,-99.99,,,-99.99,WSDL version 420,2013-05-11 12:01:00,
2013-05-11 22:11:00,59.0,59.0,30.24,SW,225,0.0,0.0,100,0.00,,,0.00,WSDL version 420,2013-05-11 12:11:00,
2013-05-11 22:16:00,58.8,58.8,30.27,SW,225,0.0,0.0,100,0.00,,,0.00,WSDL version 420,2013-05-11 12:16:00,
2013-05-11 22:21:00,58.8,58.8,30.27,SW,225,0.0,0.0,100,-99.99,,,-99.99,WSDL version 420,2013-05-11 12:21:00,
2013-05-11 22:26:00,58.7,58.7,30.27,SW,225,0.0,0.0,100,0.00,,,0.00,WSDL version 420,2013-05-11 12:26:00,
2013-05-11 22:31:00,58.5,58.5,30.27,SW,225,0.0,0.0,100,-99.99,,,-99.99,WSDL version 420,2013-05-11 12:31:00,
2013-05-11 22:36:00,58.4,58.4,30.27,SW,225,0.0,0.0,100,0.00,,,0.00,WSDL version 420,2013-05-11 12:36:00,
2013-05-11 22:41:00,58.3,58.3,30.27,ENE,68,0.0,0.0,100,0.00,,,0.00,WSDL version 420,2013-05-11 12:41:00,
2013-05-11 22:46:00,58.2,58.2,30.27,ENE,68,0.0,0.0,100,0.00,,,0.00,WSDL version 420,2013-05-11 12:46:00,
2013-05-11 22:51:00,58.0,58.0,30.27,ENE,68,0.0,0.0,100,-99.99,,,-99.99,WSDL version 420,2013-05-11 12:51:00,
2013-05-11 22:56:00,57.9,57.9,30.27,ENE,68,0.0,0.0,100,0.00,,,0.00,WSDL version 420,2013-05-11 12:56:00,
2013-05-11 23:01:00,57.6,57.6,30.27,WSW,248,0.0,0.0,100,0.00,,,0.00,WSDL version 420,2013-05-11 13:01:00,
2013-05-11 23:11:00,57.5,57.5,30.27,South,180,0.0,0.0,100,0.00,,,0.00,WSDL version 420,2013-05-11 13:11:00,
2013-05-11 23:16:00,57.6,57.6,30.24,SE,135,0.0,0.0,100,0.00,,,0.00,WSDL version 420,2013-05-11 13:16:00,
2013-05-11 23:21:00,57.6,57.6,30.24,ESE,120,0.0,0.0,100,-99.99,,,-99.99,WSDL version 420,2013-05-11 13:21:00,
2013-05-11 23:26:00,57.7,57.7,30.24,ESE,113,0.0,0.0,100,0.00,,,0.00,WSDL version 420,2013-05-11 13:26:00,
2013-05-11 23:31:00,57.7,57.7,30.24,East,96,0.0,0.0,100,0.00,,,0.00,WSDL version 420,2013-05-11 13:31:00,
2013-05-11 23:36:00,57.6,57.6,30.24,East,90,0.0,0.0,100,0.00,,,0.00,WSDL version 420,2013-05-11 13:36:00,
2013-05-11 23:41:00,57.6,57.6,30.24,East,90,0.0,0.0,100,0.00,,,0.00,WSDL version 420,2013-05-11 13:41:00,
2013-05-11 23:46:00,57.4,57.4,30.24,NW,315,0.0,0.0,100,0.00,,,0.00,WSDL version 420,2013-05-11 13:46:00,
2013-05-11 23:51:00,57.3,57.3,30.24,NW,315,0.0,0.0,100,0.00,,,0.00,WSDL version 420,2013-05-11 13:51:00,
2013-05-11 23:56:00,56.9,56.9,30.24,NW,315,0.0,0.0,100,0.00,,,0.00,WSDL version 420,2013-05-11 13:56:00,